Provincetown, Massachusetts, United States (02657)
Lat: 42.06N, Lon: 70.18W
Wx Zone: MAZ022
Local Info
Past Weather Observations for Today

NOTE: This archive is for the closest National Weather Service station to Provincetown. Information may differ from the station used for current weather conditions.

Time Weather Temperature Dewpoint Humidity Pressure Winds Precip Visibility
12:56
Clear
41°F / 5°C 18°F / -8°C 39% 30.3 in
(1026 mb)
N 23 mph
(N 37 kph)
- 10SM
11:56
Clear
39°F / 4°C 19°F / -7°C 45% 30.27 in
(1025 mb)
NNW 20.7 mph
(NNW 33 kph)
- 10SM
10:56
Clear
37°F / 3°C 19°F / -7°C 48% 30.21 in
(1023 mb)
NNW 19.6 mph
(NNW 32 kph)
- 10SM
09:56
Clear
37°F / 3°C 19°F / -7°C 48% 30.18 in
(1022 mb)
N 23 mph
(N 37 kph)
- 10SM
08:56
Clear
36°F / 2°C 21°F / -6°C 56% 30.15 in
(1021 mb)
NNW 25.3 mph
(NNW 41 kph)
- 10SM
07:56
Mostly Cloudy
36°F / 2°C 25°F / -4°C 65% 30.12 in
(1020 mb)
NNW 12.7 mph
(NNW 20 kph)
- 10SM
06:56
Overcast
36°F / 2°C 28°F / -2°C 75% 30.06 in
(1018 mb)
NNW 18.4 mph
(NNW 30 kph)
0.00 in
(0.00 mm)
10SM
06:36
Overcast
Light Snow
36°F / 2°C 28°F / -2°C 75% 30.04 in
(1017 mb)
NNW 19.6 mph
(NNW 32 kph)
0.00 in
(0.00 mm)
8SM
06:22
Overcast
Light Snow
36°F / 2°C 32°F / 0°C 87% 30.01 in
(1016 mb)
NNW 12.7 mph
(NNW 20 kph)
0.00 in
(0.00 mm)
8SM
05:56
Overcast
Fog And Mist
34°F / 1°C 32°F / 0°C 93% 30.01 in
(1016 mb)
NNW 15 mph
(NNW 24 kph)
0.10 in
(2.54 mm)
1 1/4SM
05:24
Overcast
Fog And Mist
36°F / 2°C 34°F / 1°C 93% 29.98 in
(1015 mb)
NW 16.1 mph
(NW 26 kph)
0.05 in
(1.27 mm)
2SM
04:56
Overcast
Rain
37°F / 3°C 36°F / 2°C 93% 29.92 in
(1013 mb)
NNW 15 mph
(NNW 24 kph)
0.21 in
(5.33 mm)
5SM
04:46
Overcast
Rain
37°F / 3°C 36°F / 2°C 93% 29.89 in
(1012 mb)
N 12.7 mph
(N 20 kph)
0.18 in
(4.57 mm)
5SM
04:40
Overcast
Rain
37°F / 3°C 36°F / 2°C 93% 29.89 in
(1012 mb)
N 13.8 mph
(N 22 kph)
0.16 in
(4.06 mm)
5SM
03:56
Overcast
Rain
39°F / 4°C 36°F / 2°C 87% 29.83 in
(1010 mb)
NNW 16.1 mph
(NNW 26 kph)
0.10 in
(2.54 mm)
5SM
03:14
Overcast
Rain
39°F / 4°C 36°F / 2°C 87% 29.77 in
(1008 mb)
NNW 20.7 mph
(NNW 33 kph)
0.04 in
(1.02 mm)
5SM
03:02
Overcast
Rain
39°F / 4°C 37°F / 3°C 93% 29.77 in
(1008 mb)
N 20.7 mph
(N 33 kph)
0.02 in
(0.51 mm)
4SM
02:56
Overcast
Rain
39°F / 4°C 37°F / 3°C 93% 29.8 in
(1009 mb)
NNW 16.1 mph
(NNW 26 kph)
0.06 in
(1.52 mm)
4SM
02:26
Overcast
Rain
41°F / 5°C 37°F / 3°C 87% 29.77 in
(1008 mb)
NNW 17.3 mph
(NNW 28 kph)
0.02 in
(0.51 mm)
5SM
02:12
Overcast
Light Rain
41°F / 5°C 39°F / 4°C 93% 29.77 in
(1008 mb)
NNW 16.1 mph
(NNW 26 kph)
0.01 in
(0.25 mm)
7SM
02:04
Overcast
Light Rain
41°F / 5°C 39°F / 4°C 93% 29.74 in
(1007 mb)
N 18.4 mph
(N 30 kph)
0.00 in
(0.00 mm)
5SM
01:56
Overcast
Rain
43°F / 6°C 39°F / 4°C 87% 29.74 in
(1007 mb)
N 13.8 mph
(N 22 kph)
0.11 in
(2.79 mm)
4SM
01:20
Overcast
Rain
43°F / 6°C 43°F / 6°C 100% 29.74 in
(1007 mb)
NNW 10.4 mph
(NNW 17 kph)
0.04 in
(1.02 mm)
4SM
01:09
Overcast
Rain
45°F / 7°C 43°F / 6°C 93% 29.74 in
(1007 mb)
NNW 13.8 mph
(NNW 22 kph)
0.02 in
(0.51 mm)
4SM
00:56
Overcast
Light Rain
45°F / 7°C 43°F / 6°C 93% 29.74 in
(1007 mb)
NNW 17.3 mph
(NNW 28 kph)
0.12 in
(3.05 mm)
3SM
00:01
Overcast
Heavy Rain
48°F / 9°C 46°F / 8°C 94% 29.71 in
(1006 mb)
NW 9.2 mph
(NW 15 kph)
0.03 in
(0.76 mm)
4SM
Time Weather Temperature Dewpoint Humidity Pressure Winds Precip Visibility


Weather for websites

WeatherForYou.com, LLC is not responsible for any damages or problems caused by this service. Current weather conditions are obtained from the closest station including government and personal stations which may have varying degrees of accuracy. Weather forecasts are derived from the NOAA NDFD. Like all things, this site belongs to Jesus Christ... He just trusts me to maintain it. If you have any questions or comments email webmaster@weatherforyou.com

Copyright © 2014, WeatherForYou.com LLC. All rights reserved.